#datint,netname,site,siteID,timestamp,IntT,BattV,AirT2,AirT,AirT_Avg,AirT_Max,AirT_Min,RH_Avg,RH_Max,RH_Min,EA_Avg,Td_Avg,Td_Max,Td_Min,WindS_Smp,WindS_Avg,WindD_Avg,WindD_SD,WindS_Max,ETo,ETr,SoilT4,SoilT8,SoilVWC8,SolarW_Avg,wetstate_Avg,wetT_Avg,Precip_accum,Precip_WPG,Precip_TB
15min,AgWx,beryljct,423,05JUL2020:00:00:00,64.5,12.92,59.4,60.0,61.5,66.8,58.3,39,49,27,0.723,36.1,39.6,31.3,4.121,1.8,29,72,4.1,-0.00007,-0.00006,69.5,70.0,10,0,.,.,13.47,0.00,0.00
15min,AgWx,beryljct,423,05JUL2020:00:15:00,62.9,12.91,52.7,52.8,55.3,60.0,52.2,56,66,42,0.835,39.9,41.4,36.6,2.389,2.0,120,39,3.7,-0.00009,-0.00010,69.1,69.9,10,0,.,.,13.47,0.00,0.00
15min,AgWx,beryljct,423,05JUL2020:00:30:00,60.8,12.91,60.0,54.0,54.7,57.0,51.9,52,64,43,0.722,37.4,40.4,34.6,0.614,5.0,135,34,7.4,0.00017,0.00026,68.8,69.9,9,0,.,.,13.47,0.00,0.00
15min,AgWx,beryljct,423,05JUL2020:00:45:00,59.4,12.9,63.1,62.9,58.1,62.9,54.5,41,56,30,0.595,34.3,39.3,31.0,2.236,1.1,188,48,3.5,-0.00019,-0.00025,68.5,69.8,10,0,.,.,13.47,0.00,0.00
15min,AgWx,beryljct,423,05JUL2020:01:00:00,59.0,12.89,54.7,55.5,59.8,62.9,55.5,39,50,30,0.755,34.4,37.3,31.4,2.894,1.9,173,24,3.5,-0.00006,-0.00005,68.2,69.7,11,0,.,.,13.48,0.00,0.00
15min,AgWx,beryljct,423,05JUL2020:01:15:00,58.0,12.88,52.9,53.4,53.1,55.5,50.1,59,74,50,0.846,39.0,42.1,36.9,0.68,1.2,281,46,3.4,-0.00018,-0.00024,67.8,69.6,10,0,.,.,13.47,0.00,0.00
15min,AgWx,beryljct,423,05JUL2020:01:30:00,57.1,12.87,52.8,54.1,54.7,57.1,52.2,46,65,33,0.756,34.1,40.8,28.4,0.943,2.0,316,8.6,3.5,-0.00007,-0.00006,67.5,69.5,10,0,.,.,13.48,0.00,0.00
15min,AgWx,beryljct,423,05JUL2020:01:45:00,56.3,12.86,56.1,57.3,57.3,61.5,53.5,43,60,29,0.757,34.3,40.2,28.7,0.702,0.8,288,22,2.4,-0.00024,-0.00033,67.2,69.4,10,0,.,.,13.48,0.00,0.00
15min,AgWx,beryljct,423,05JUL2020:02:00:00,55.8,12.86,55.7,54.6,55.2,57.2,53.4,52,63,46,0.732,38.1,41.3,35.7,0,0.2,183,26,1.6,-0.00034,-0.00053,66.8,69.3,10,0,.,.,13.48,0.00,0.00
15min,AgWx,beryljct,423,05JUL2020:02:15:00,55.1,12.84,52.1,52.0,53.2,55.7,51.5,60,68,48,0.850,39.3,41.8,36.1,0.548,0.4,120,7.1,1.5,-0.00030,-0.00045,66.5,69.1,10,0,.,.,13.48,0.00,0.00
15min,AgWx,beryljct,423,05JUL2020:02:30:00,54.4,12.83,49.5,50.0,51.9,54.5,49.9,60,67,46,0.771,38.4,40.7,34.3,2.411,2.1,173,18,4.3,-0.00009,-0.00010,66.3,69.0,10,0,.,.,13.49,0.00,0.00
15min,AgWx,beryljct,423,05JUL2020:02:45:00,53.6,12.82,53.8,53.0,50.1,53.0,48.7,60,70,42,0.586,36.8,39.4,30.5,2.148,2.6,192,11,4.1,-0.00005,-0.00004,65.9,68.9,10,0,.,.,13.48,0.00,0.00
15min,AgWx,beryljct,423,05JUL2020:03:00:00,52.9,12.82,52.7,52.8,52.5,53.6,50.2,48,58,44,0.627,33.2,36.4,31.6,3.091,2.6,184,4.9,3.3,-0.00001,0.00003,65.6,68.8,10,0,.,.,13.49,0.01,0.00
15min,AgWx,beryljct,423,05JUL2020:03:15:00,52.5,12.82,57.2,55.6,51.3,55.6,48.8,55,67,36,0.535,35.3,38.6,28.8,1.995,2.7,204,12,3.6,-0.00002,0.00000,65.3,68.7,10,0,.,.,13.49,0.00,0.00
15min,AgWx,beryljct,423,05JUL2020:03:30:00,52.1,12.81,50.0,49.6,51.0,56.0,49.0,61,68,36,0.778,37.6,39.5,29.3,2.236,2.5,215,6.9,3.2,-0.00005,-0.00005,65.1,68.5,10,0,.,.,13.49,0.00,0.00
15min,AgWx,beryljct,423,05JUL2020:03:45:00,51.7,12.8,47.3,46.7,49.0,51.2,46.5,65,75,55,0.801,37.7,39.1,35.4,2.587,2.3,185,28,4.0,-0.00009,-0.00010,64.8,68.4,10,0,.,.,13.49,0.00,0.00
15min,AgWx,beryljct,423,05JUL2020:04:00:00,51.0,12.78,50.0,49.7,47.5,49.7,45.6,58,73,42,0.520,33.3,38.6,27.4,2.346,2.9,191,12,4.6,-0.00002,0.00000,64.5,68.3,10,0,.,.,13.49,0.00,0.00
15min,AgWx,beryljct,423,05JUL2020:04:15:00,50.5,12.78,45.8,45.6,47.3,50.7,45.3,53,66,38,0.615,30.5,34.5,25.3,1.447,1.5,155,7.9,3.5,-0.00013,-0.00015,64.3,68.1,10,0,.,.,13.49,0.00,0.00
15min,AgWx,beryljct,423,05JUL2020:04:30:00,49.8,12.76,44.9,45.6,46.4,47.2,45.6,58,67,50,0.698,32.2,35.4,29.7,2.938,2.1,159,8.4,3.8,-0.00008,-0.00009,64.0,68.0,10,0,.,.,13.49,0.00,0.00
15min,AgWx,beryljct,423,05JUL2020:04:45:00,49.1,12.76,45.0,44.9,44.7,45.4,44.2,74,77,68,0.748,36.9,37.7,35.6,0,1.5,170,0.1,2.8,-0.00017,-0.00022,63.7,67.9,10,0,.,.,13.49,0.00,0.00
15min,AgWx,beryljct,423,05JUL2020:05:00:00,48.4,12.75,43.7,43.2,44.3,45.6,43.1,64,75,58,0.567,32.7,37.5,29.8,1.03,1.5,302,46,3.8,-0.00015,-0.00020,63.5,67.7,10,0,.,.,13.49,0.00,0.00
15min,AgWx,beryljct,423,05JUL2020:05:15:00,47.8,12.75,45.9,45.5,43.8,45.5,43.0,62,68,50,0.540,31.4,33.7,27.7,1.074,0.8,319,0.4,3.1,-0.00021,-0.00030,63.2,67.6,10,0,.,.,13.49,0.00,0.00
15min,AgWx,beryljct,423,05JUL2020:05:30:00,47.4,12.74,43.6,43.3,44.4,45.5,43.3,67,77,51,0.733,34.2,37.0,28.0,0.789,1.4,228,31,3.7,-0.00016,-0.00021,63.0,67.4,10,0,.,.,13.49,0.00,0.00
15min,AgWx,beryljct,423,05JUL2020:05:45:00,47.1,12.73,48.0,47.6,45.2,47.8,43.3,70,78,61,0.704,35.8,38.2,32.1,1.841,1.0,216,15,2.5,0.00008,0.00013,62.7,67.4,10,0,.,.,13.49,0.00,0.00
15min,AgWx,beryljct,423,05JUL2020:06:00:00,47.1,12.74,48.0,47.4,47.4,48.0,46.9,61,65,57,0.663,34.8,35.8,33.5,0.702,0.3,270,0.0,1.9,0.00004,0.00006,62.5,67.2,10,0,.,.,13.49,0.00,0.00
15min,AgWx,beryljct,423,05JUL2020:06:15:00,47.1,12.72,47.6,47.9,48.0,48.7,47.2,56,63,53,0.713,33.3,35.9,32.1,0.855,0.4,269,0.3,1.1,0.00006,0.00009,62.3,67.1,10,2,.,.,13.49,0.00,0.00
15min,AgWx,beryljct,423,05JUL2020:06:30:00,47.1,12.71,47.1,46.4,46.1,47.8,44.6,74,83,62,0.727,38.1,40.8,35.3,0.745,0.4,246,22,1.3,0.00009,0.00012,62.0,66.9,10,11,.,.,13.49,0.00,0.00
15min,AgWx,beryljct,423,05JUL2020:06:45:00,47.5,12.74,46.9,46.3,46.3,47.2,45.2,67,75,57,0.611,36.0,37.9,32.0,0,0.7,208,0.0,1.7,0.00029,0.00035,61.8,66.8,10,42,.,.,13.49,0.00,0.00
15min,AgWx,beryljct,423,05JUL2020:07:00:00,48.3,12.75,45.8,45.3,46.2,46.8,45.3,61,68,54,0.688,33.3,36.8,30.2,1.666,1.4,331,15,2.8,0.00049,0.00061,61.6,66.7,10,76,.,.,13.49,0.00,0.00
15min,AgWx,beryljct,423,05JUL2020:07:15:00,49.8,12.71,46.3,46.4,46.5,47.6,45.3,68,74,57,0.726,36.3,38.6,32.7,2.609,1.1,6.9,27,3.0,0.00060,0.00070,61.4,66.5,10,114,.,.,13.49,0.00,0.00
15min,AgWx,beryljct,423,05JUL2020:07:30:00,51.2,12.74,47.8,47.6,46.6,47.6,46.0,71,75,65,0.815,37.6,39.6,35.9,2.324,2.5,50,8.2,3.3,0.00083,0.00099,61.2,66.4,10,157,.,.,13.49,0.00,0.00
15min,AgWx,beryljct,423,05JUL2020:07:45:00,53.0,12.73,52.5,51.8,49.7,51.8,47.6,67,74,55,0.755,39.2,41.8,36.2,1.096,1.8,47,4.2,3.0,0.00107,0.00124,61.0,66.3,10,202,.,.,13.48,0.00,0.00
15min,AgWx,beryljct,423,05JUL2020:08:00:00,55.7,12.75,55.3,55.1,54.0,55.1,51.9,52,59,48,0.811,36.7,39.1,34.3,1.381,1.1,358,21,2.3,0.00138,0.00157,60.8,66.1,10,248,.,.,13.48,0.00,0.00
15min,AgWx,beryljct,423,05JUL2020:08:15:00,58.7,12.74,57.7,57.4,56.6,57.4,55.1,50,55,43,0.747,38.3,41.2,34.6,2.302,1.5,3.6,18,2.5,0.00172,0.00198,60.7,66.0,10,297,.,.,13.47,0.00,0.00
15min,AgWx,beryljct,423,05JUL2020:08:30:00,61.6,12.76,59.4,59.6,58.7,59.6,57.4,46,52,41,0.720,38.2,41.5,35.8,0,0.5,14,14,2.5,0.00196,0.00215,60.6,65.9,9,346,.,.,13.47,0.00,0.00
15min,AgWx,beryljct,423,05JUL2020:08:45:00,64.6,12.81,62.0,60.9,60.2,60.9,59.5,47,60,38,0.800,39.5,46.7,34.3,0,0.5,77,27,1.8,0.00230,0.00250,60.5,65.7,10,397,.,.,13.47,0.00,0.00
15min,AgWx,beryljct,423,05JUL2020:09:00:00,67.1,12.9,66.0,65.6,63.2,65.7,61.1,45,56,34,0.774,41.7,48.0,36.5,3.661,2.1,11,25,4.1,0.00282,0.00324,60.4,65.6,10,447,.,.,13.46,0.00,0.00
15min,AgWx,beryljct,423,05JUL2020:09:15:00,69.4,13.02,66.2,66.7,66.6,67.1,65.7,38,47,28,0.869,40.0,45.7,32.5,3.573,3.4,30,16,5.3,0.00339,0.00405,60.4,65.5,10,495,.,.,13.46,0.00,0.00
15min,AgWx,beryljct,423,05JUL2020:09:30:00,71.6,13.18,68.6,68.9,67.5,68.9,66.6,40,51,33,0.917,42.2,48.3,37.7,2.477,2.9,42,11,4.1,0.00356,0.00416,60.4,65.3,9,526,.,.,13.46,0.00,0.00
15min,AgWx,beryljct,423,05JUL2020:09:45:00,73.8,13.41,70.4,70.4,69.3,70.4,68.7,38,48,29,0.889,42.5,48.3,35.5,2.587,2.4,53,12,3.4,0.00399,0.00457,60.5,65.3,10,591,.,.,13.45,0.00,0.00
15min,AgWx,beryljct,423,05JUL2020:10:00:00,76.3,13.61,72.3,72.7,71.7,72.8,70.4,35,46,26,1.053,42.3,50.6,34.9,1.14,1.2,45,15,2.1,0.00426,0.00473,60.6,65.1,10,637,.,.,13.45,0.00,0.00
15min,AgWx,beryljct,423,05JUL2020:10:15:00,79.1,13.7,74.4,74.6,73.4,74.6,72.5,41,49,33,1.233,47.9,54.1,42.1,1.359,0.5,113,22,1.6,0.00457,0.00495,60.7,65.0,10,681,.,.,13.45,0.00,0.00
15min,AgWx,beryljct,423,05JUL2020:10:30:00,81.4,13.94,75.9,76.3,75.0,76.3,74.2,43,51,35,1.374,51.0,55.3,45.3,0.241,1.4,101,17,3.4,0.00501,0.00553,60.9,64.9,9,723,.,.,13.44,0.00,0.00
15min,AgWx,beryljct,423,05JUL2020:10:45:00,83.2,13.87,77.2,77.4,76.5,77.4,75.8,44,54,35,1.182,53.0,59.0,47.2,1.469,1.9,119,16,3.5,0.00538,0.00599,61.2,64.9,9,762,.,.,13.44,0.00,0.00
15min,AgWx,beryljct,423,05JUL2020:11:00:00,84.6,13.86,78.5,78.5,78.1,78.6,77.4,41,52,30,1.631,52.3,59.4,44.0,0.811,1.9,102,14,3.0,0.00567,0.00631,61.5,64.8,9,792,.,.,13.45,0.00,0.00
15min,AgWx,beryljct,423,05JUL2020:11:15:00,86.0,13.91,80.9,81.4,80.1,81.5,78.5,39,51,26,1.147,52.7,59.3,43.6,2.148,2.3,74,16,3.2,0.00610,0.00683,61.9,64.7,10,835,.,.,13.44,0.00,0.00
15min,AgWx,beryljct,423,05JUL2020:11:30:00,87.5,13.86,82.0,82.2,82.0,82.7,81.3,35,50,23,1.472,51.4,61.1,41.2,3.683,3.0,75,12,4.3,0.00627,0.00716,62.4,64.7,10,830,.,.,13.44,0.00,0.00
15min,AgWx,beryljct,423,05JUL2020:11:45:00,88.6,13.84,82.8,83.5,82.9,85.0,82.0,33,44,19,1.531,50.6,58.4,37.8,4.034,3.6,49,18,6.1,0.00681,0.00784,62.9,64.7,10,895,.,.,13.44,0.00,0.00
15min,AgWx,beryljct,423,05JUL2020:12:00:00,89.6,13.76,82.6,83.6,84.1,84.9,83.1,29,45,19,1.523,47.5,59.4,37.9,2.981,3.6,56,26,7.8,0.00707,0.00817,63.6,64.7,10,919,.,.,13.44,0.00,0.00
15min,AgWx,beryljct,423,05JUL2020:12:15:00,89.8,13.87,84.3,84.9,83.7,85.4,81.9,31,42,19,0.875,49.0,57.7,38.0,8.48,7.2,167,97,15.8,0.00757,0.00922,64.3,64.7,9,939,.,.,13.44,0.00,0.00
15min,AgWx,beryljct,423,05JUL2020:12:30:00,89.7,13.74,86.8,86.8,85.6,87.1,84.1,24,31,17,0.840,43.9,50.5,36.8,6.949,6.7,202,41,12.3,0.00790,0.00964,65.0,64.7,9,963,.,.,13.44,0.00,0.00
15min,AgWx,beryljct,423,05JUL2020:12:45:00,89.7,13.76,85.5,86.5,86.2,87.2,85.3,23,31,17,0.866,43.5,52.2,36.2,10.08,9.7,194,18,17.8,0.00846,0.01072,65.8,64.7,10,981,.,.,13.44,0.00,0.00
15min,AgWx,beryljct,423,05JUL2020:13:00:00,89.9,13.35,87.7,86.6,86.5,87.4,85.3,23,31,16,0.916,44.3,52.0,35.5,6.379,6.3,212,21,11.3,0.00812,0.00984,66.6,64.8,10,995,.,.,13.44,0.00,0.00
15min,AgWx,beryljct,423,05JUL2020:13:15:00,90.0,13.35,86.5,86.3,86.0,87.0,84.4,22,32,17,0.733,42.3,51.3,36.1,7.3,10.1,197,23,17.0,0.00866,0.01101,67.3,64.9,10,1008,.,.,13.44,0.00,0.00
15min,AgWx,beryljct,423,05JUL2020:13:30:00,90.0,13.35,86.3,86.3,85.6,87.0,83.5,25,35,19,0.849,46.0,53.1,39.1,11.29,8.0,182,34,14.8,0.00833,0.01026,68.1,65.0,10,1012,.,.,13.44,0.00,0.00
15min,AgWx,beryljct,423,05JUL2020:13:45:00,90.3,13.45,84.2,85.9,87.0,88.3,85.6,21,30,13,1.000,41.9,50.8,31.5,9.91,8.6,200,33,20.3,0.00861,0.01078,69.0,65.1,10,1014,.,.,13.44,0.00,0.00
15min,AgWx,beryljct,423,05JUL2020:14:00:00,90.3,13.39,87.8,87.1,85.8,87.8,84.5,23,28,14,0.867,43.4,48.6,32.9,7.388,7.8,224,30,15.4,0.00838,0.01034,69.7,65.3,10,1014,.,.,13.44,0.00,0.00
15min,AgWx,beryljct,423,05JUL2020:14:15:00,90.8,13.37,86.5,86.1,87.1,88.2,85.8,21,30,14,1.238,42.2,51.7,32.7,7.366,8.2,197,33,15.9,0.00815,0.01021,70.5,65.4,10,957,.,.,13.43,0.00,0.00
15min,AgWx,beryljct,423,05JUL2020:14:30:00,91.0,13.34,85.9,86.3,86.9,88.1,86.1,21,31,14,1.185,41.9,52.0,32.7,4.034,8.6,192,35,15.5,0.00848,0.01062,71.3,65.6,10,998,.,.,13.43,0.00,0.00
15min,AgWx,beryljct,423,05JUL2020:14:45:00,90.9,13.31,88.6,87.3,86.3,87.8,84.3,23,32,13,0.957,44.4,52.5,31.5,5.875,8.3,182,28,14.6,0.00826,0.01028,72.1,65.7,10,983,.,.,13.44,0.00,0.00
15min,AgWx,beryljct,423,05JUL2020:15:00:00,90.8,13.31,87.9,87.7,87.0,88.3,86.1,23,30,17,0.766,44.2,52.2,37.7,7.936,9.1,208,16,16.4,0.00832,0.01049,72.8,65.9,10,968,.,.,13.44,0.00,0.00
15min,AgWx,beryljct,423,05JUL2020:15:15:00,90.8,13.29,88.6,88.7,87.3,88.8,85.7,24,33,17,1.076,45.6,53.7,37.3,5.831,6.7,212,23,13.9,0.00783,0.00959,73.5,66.2,10,944,.,.,13.44,0.00,0.00
15min,AgWx,beryljct,423,05JUL2020:15:30:00,91.3,13.3,90.2,88.3,87.8,89.0,86.5,22,26,18,0.837,44.3,48.9,38.8,13.24,8.3,202,21,13.4,0.00795,0.01000,74.2,66.3,10,923,.,.,13.44,0.01,0.00
15min,AgWx,beryljct,423,05JUL2020:15:45:00,91.7,13.26,89.1,89.0,87.7,89.5,86.2,21,29,14,0.715,43.1,50.9,33.8,2.828,7.7,215,26,19.6,0.00771,0.00969,74.9,66.6,10,898,.,.,13.44,0.00,0.00
15min,AgWx,beryljct,423,05JUL2020:16:00:00,92.3,13.26,85.9,85.3,87.1,89.2,85.2,23,33,15,1.308,44.6,52.9,34.7,6.314,7.5,167,19,13.3,0.00739,0.00925,75.5,66.8,10,869,.,.,13.44,0.00,0.00
15min,AgWx,beryljct,423,05JUL2020:16:15:00,92.8,13.23,87.6,87.1,87.2,88.5,85.4,21,30,15,0.801,42.4,51.6,34.7,6.357,7.3,197,37,12.5,0.00716,0.00901,76.1,67.0,10,836,.,.,13.44,0.00,0.00
15min,AgWx,beryljct,423,05JUL2020:16:30:00,93.1,13.24,88.5,87.2,87.3,88.8,85.9,21,30,15,0.787,42.6,51.3,34.8,7.563,8.5,188,31,13.8,0.00698,0.00903,76.6,67.3,10,784,.,.,13.44,0.00,0.00
15min,AgWx,beryljct,423,05JUL2020:16:45:00,93.3,13.24,90.2,88.8,87.6,89.2,85.9,20,29,14,0.733,41.9,50.6,33.1,6.401,7.3,189,24,12.9,0.00649,0.00832,77.1,67.6,10,742,.,.,13.44,0.00,0.00
15min,AgWx,beryljct,423,05JUL2020:17:00:00,93.5,13.27,86.2,87.9,87.6,89.6,85.8,19,26,15,1.074,40.7,47.5,36.2,5.196,8.9,188,27,16.3,0.00668,0.00881,77.5,67.8,10,727,.,.,13.44,0.00,0.00
15min,AgWx,beryljct,423,05JUL2020:17:15:00,93.2,13.26,86.3,87.9,87.4,88.8,85.5,21,28,13,1.019,41.8,48.9,31.2,10.61,8.1,214,27,15.5,0.00621,0.00813,77.8,68.1,10,686,.,.,13.44,0.00,0.00
15min,AgWx,beryljct,423,05JUL2020:17:30:00,93.1,13.28,89.0,88.6,87.1,88.6,85.8,23,31,15,0.729,44.7,51.8,34.4,4.647,5.9,212,23,12.2,0.00534,0.00682,78.1,68.3,10,624,.,.,13.44,0.00,0.00
15min,AgWx,beryljct,423,05JUL2020:17:45:00,93.1,13.21,87.9,88.3,87.9,89.0,86.5,20,32,13,0.826,41.3,53.6,31.3,6.555,6.7,200,32,11.9,0.00534,0.00701,78.4,68.6,10,598,.,.,13.44,0.00,0.00
15min,AgWx,beryljct,423,05JUL2020:18:00:00,93.1,13.24,87.9,88.5,88.0,89.5,86.3,19,26,13,0.838,40.3,49.2,31.9,6.511,6.6,189,17,10.9,0.00500,0.00663,78.5,68.8,10,552,.,.,13.44,0.00,0.00
15min,AgWx,beryljct,423,05JUL2020:18:15:00,92.8,13.24,84.7,87.8,87.3,88.5,86.5,19,22,14,0.745,39.6,43.3,31.9,4.362,9.4,181,22,14.0,0.00520,0.00733,78.6,69.1,10,503,.,.,13.44,0.00,0.00
15min,AgWx,beryljct,423,05JUL2020:18:30:00,92.2,13.29,85.3,86.2,86.8,88.0,85.2,19,25,15,0.859,39.7,45.6,35.0,6.664,8.7,192,20,15.9,0.00467,0.00662,78.7,69.3,10,456,.,.,13.44,0.00,0.00
15min,AgWx,beryljct,423,05JUL2020:18:45:00,91.4,13.2,86.4,87.2,86.2,87.2,85.0,20,25,16,0.737,40.5,45.3,35.6,11,7.4,186,14,12.8,0.00401,0.00568,78.7,69.6,10,406,.,.,13.44,0.00,0.00
15min,AgWx,beryljct,423,05JUL2020:19:00:00,90.9,13.12,83.4,84.7,86.1,87.2,84.7,19,23,16,0.927,38.8,42.6,35.8,5.327,8.2,194,18,11.7,0.00368,0.00551,78.6,69.8,10,329,.,.,13.44,0.00,0.00
15min,AgWx,beryljct,423,05JUL2020:19:15:00,90.1,13.09,84.2,84.9,85.1,86.3,83.2,20,28,15,0.796,39.1,46.6,34.0,7.541,8.5,202,14,12.2,0.00350,0.00531,78.5,70.0,10,307,.,.,13.44,0.00,0.00
15min,AgWx,beryljct,423,05JUL2020:19:30:00,89.4,13.08,86.3,86.2,85.8,86.7,84.4,17,21,14,0.630,35.8,41.4,32.1,14.07,9.9,181,12,16.1,0.00354,0.00565,78.4,70.2,10,257,.,.,13.44,0.00,0.00
15min,AgWx,beryljct,423,05JUL2020:19:45:00,88.8,13.07,86.0,85.7,85.8,86.5,85.2,16,18,14,0.661,34.3,36.6,31.6,11.86,9.8,183,10,15.0,0.00322,0.00533,78.2,70.3,10,210,.,.,13.44,0.00,0.00
15min,AgWx,beryljct,423,05JUL2020:20:00:00,88.1,13.05,84.5,84.9,85.3,86.1,84.5,16,18,14,0.638,34.0,35.8,31.2,8.48,9.7,193,8.2,12.4,0.00287,0.00493,77.9,70.5,10,165,.,.,13.45,0.00,0.00
15min,AgWx,beryljct,423,05JUL2020:20:15:00,87.3,13.02,83.0,83.6,84.0,85.6,82.9,17,19,14,0.673,34.0,37.1,30.9,6.708,8.2,193,5.8,12.0,0.00158,0.00216,77.7,70.7,10,124,.,.,13.45,0.00,0.00
15min,AgWx,beryljct,423,05JUL2020:20:30:00,86.0,13.03,80.6,80.5,81.9,83.5,80.4,18,20,16,0.681,33.9,36.3,31.8,6.248,6.6,196,7.0,8.5,0.00120,0.00169,77.4,70.8,10,85,.,.,13.45,0.01,0.00
15min,AgWx,beryljct,423,05JUL2020:20:45:00,84.1,13.01,78.4,78.9,79.5,80.8,78.6,20,22,18,0.642,34.9,37.1,32.8,5.568,5.7,205,5.2,8.5,0.00090,0.00130,77.0,70.9,10,50,.,.,13.45,0.00,0.00
15min,AgWx,beryljct,423,05JUL2020:21:00:00,82.0,13,77.6,77.5,77.9,78.9,76.9,20,22,18,0.605,33.3,35.5,30.8,5.853,5.9,207,5.8,8.2,0.00081,0.00118,76.7,71.0,10,14,.,.,13.45,0.01,0.00
15min,AgWx,beryljct,423,05JUL2020:21:15:00,80.0,12.99,76.5,77.8,77.7,78.4,77.5,18,19,16,0.556,31.0,32.2,28.7,5.48,6.3,198,8.7,8.6,0.00085,0.00123,76.3,71.1,11,3,.,.,13.46,0.00,0.00
15min,AgWx,beryljct,423,05JUL2020:21:30:00,78.3,13,73.7,74.1,75.8,77.7,72.7,19,26,17,0.579,31.0,36.0,29.4,5.108,5.9,186,11,7.7,0.00074,0.00108,75.9,71.2,10,0,.,.,13.45,0.00,0.00
15min,AgWx,beryljct,423,05JUL2020:21:45:00,76.3,12.98,73.6,71.8,73.3,74.9,71.1,20,25,17,0.536,30.3,33.9,27.3,5.327,4.8,182,7.3,6.4,0.00053,0.00081,75.5,71.2,11,0,.,.,13.46,0.00,0.00
15min,AgWx,beryljct,423,05JUL2020:22:00:00,74.4,12.98,71.7,72.1,72.7,74.5,71.4,19,22,16,0.543,28.0,31.2,25.2,4.779,5.3,180,8.5,6.4,0.00061,0.00091,75.1,71.3,10,0,.,.,13.46,0.00,0.00
15min,AgWx,beryljct,423,05JUL2020:22:15:00,73.0,12.97,71.7,72.6,72.0,72.6,71.2,21,22,18,0.570,29.4,30.9,26.9,4.341,5.5,188,7.6,7.4,0.00063,0.00092,74.7,71.3,10,0,.,.,13.46,0.00,0.00
15min,AgWx,beryljct,423,05JUL2020:22:30:00,72.0,12.97,70.2,69.9,70.4,72.4,68.6,21,24,19,0.524,29.1,32.7,27.4,6.796,6.1,169,11,7.8,0.00067,0.00095,74.3,71.3,10,0,.,.,13.46,0.00,0.00
15min,AgWx,beryljct,423,05JUL2020:22:45:00,71.2,12.95,73.3,70.5,70.6,72.1,69.3,21,25,18,0.510,28.9,32.4,26.8,8.57,7.6,160,7.5,9.7,0.00085,0.00116,73.9,71.3,10,0,.,.,13.46,0.00,0.00
15min,AgWx,beryljct,423,05JUL2020:23:00:00,70.9,12.95,70.3,70.7,71.6,72.6,70.4,20,24,19,0.555,29.0,32.4,27.0,7.958,7.3,164,8.6,9.4,0.00084,0.00116,73.5,71.3,10,0,.,.,13.46,0.00,0.00
15min,AgWx,beryljct,423,05JUL2020:23:15:00,70.8,12.94,69.2,69.0,70.7,72.6,68.9,21,24,18,0.560,28.8,32.1,26.0,6.533,7.2,162,6.6,9.0,0.00081,0.00112,73.1,71.3,11,0,.,.,13.46,0.00,0.00
15min,AgWx,beryljct,423,05JUL2020:23:30:00,69.6,12.93,64.7,63.4,65.0,69.0,62.5,32,38,23,0.666,34.0,36.6,29.3,5.437,6.5,158,5.9,7.5,0.00055,0.00076,72.8,71.2,10,0,.,.,13.46,0.00,0.00
15min,AgWx,bigpiney,439,05JUL2020:00:00:00,54.9,12.74,50.8,51.4,51.9,52.6,50.7,47,49,45,0.637,32.5,33.0,31.9,3.354,5.1,221,9.2,7.2,0.00018,0.00026,54.7,50.0,55,0,0,0.0,7.85,0.00,0.00
15min,AgWx,bigpiney,439,05JUL2020:00:15:00,54.4,12.72,48.6,49.3,50.0,51.3,49.3,55,60,50,0.665,34.6,36.2,33.1,2.126,2.3,232,37,4.1,-0.00007,-0.00007,54.7,50.0,55,0,0,0.0,7.85,0.00,0.00
15min,AgWx,bigpiney,439,05JUL2020:00:30:00,53.6,12.72,46.7,45.7,47.0,49.2,45.2,64,68,56,0.693,35.3,37.5,34.3,1.798,2.2,38,62,5.2,-0.00011,-0.00013,54.6,50.0,55,0,0,0.0,7.85,0.00,0.00
15min,AgWx,bigpiney,439,05JUL2020:00:45:00,52.6,12.71,43.4,43.4,44.7,46.4,43.3,72,77,64,0.732,36.1,37.1,34.9,3.113,2.9,215,30,4.5,-0.00008,-0.00009,54.6,50.1,55,0,0,0.0,7.85,0.00,0.00
15min,AgWx,bigpiney,439,05JUL2020:01:00:00,51.5,12.7,43.6,43.4,43.4,43.7,43.1,76,77,74,0.708,36.2,36.9,35.6,3.157,3.4,224,7.8,4.6,-0.00008,-0.00008,54.5,50.0,55,0,0,0.0,7.85,0.00,0.00
15min,AgWx,bigpiney,439,05JUL2020:01:15:00,50.4,12.7,44.8,44.2,43.7,44.2,43.4,74,75,71,0.697,35.8,36.1,35.3,3.508,3.4,222,9.5,4.2,-0.00007,-0.00007,54.5,50.0,55,0,0,0.0,7.85,0.00,0.00
15min,AgWx,bigpiney,439,05JUL2020:01:30:00,49.7,12.68,46.0,46.5,46.1,47.0,44.3,65,70,61,0.675,34.7,35.3,34.3,3.091,3.4,240,7.7,4.8,-0.00003,-0.00001,54.4,50.1,55,0,0,0.0,7.85,0.00,0.00
15min,AgWx,bigpiney,439,05JUL2020:01:45:00,49.4,12.68,43.7,43.8,44.7,46.5,43.6,66,68,63,0.652,34.1,34.8,33.6,4.077,3.7,223,6.8,4.6,-0.00002,-0.00000,54.3,50.1,55,0,0,0.0,7.85,0.00,0.00
15min,AgWx,bigpiney,439,05JUL2020:02:00:00,48.9,12.66,42.7,43.0,43.2,43.9,42.8,68,69,67,0.648,33.4,33.8,33.1,2.762,3.9,223,8.2,4.8,-0.00002,-0.00000,54.2,50.1,55,0,0,0.0,7.85,0.00,0.00
15min,AgWx,bigpiney,439,05JUL2020:02:15:00,48.3,12.66,42.4,41.9,41.9,42.9,41.4,72,73,69,0.653,33.4,33.7,33.1,3.025,3.5,221,9.4,4.5,-0.00005,-0.00005,54.2,50.1,55,0,0,0.0,7.85,0.00,0.00
15min,AgWx,bigpiney,439,05JUL2020:02:30:00,47.7,12.64,44.6,44.2,42.9,44.2,41.7,69,74,64,0.641,33.5,34.2,33.0,1.71,3.4,219,8.6,4.6,-0.00005,-0.00004,54.1,50.1,55,0,0,0.0,7.85,0.00,0.00
15min,AgWx,bigpiney,439,05JUL2020:02:45:00,47.3,12.64,43.9,43.8,43.4,44.4,42.0,66,70,62,0.629,32.7,33.2,32.2,1.469,1.7,188,30,4.4,-0.00014,-0.00018,54.0,50.1,55,0,0,0.0,7.85,0.00,0.00
15min,AgWx,bigpiney,439,05JUL2020:03:00:00,46.8,12.64,43.5,43.8,44.6,46.2,43.6,67,76,60,0.737,34.2,37.0,32.7,1.315,1.1,263,21,2.0,-0.00020,-0.00027,54.0,50.1,55,0,0,0.0,7.85,0.00,0.00
15min,AgWx,bigpiney,439,05JUL2020:03:15:00,46.4,12.62,42.0,42.3,43.2,43.9,42.3,75,77,73,0.701,36.0,36.8,35.4,2.762,2.2,247,22,3.2,-0.00013,-0.00017,53.9,50.1,55,0,0,0.0,7.85,0.00,0.00
15min,AgWx,bigpiney,439,05JUL2020:03:30:00,46.0,12.62,40.2,40.4,41.8,42.6,40.4,74,79,70,0.674,34.2,35.4,33.4,3.749,3.7,219,5.4,4.5,-0.00006,-0.00005,53.9,50.1,55,0,0,0.0,7.85,0.00,0.00
15min,AgWx,bigpiney,439,05JUL2020:03:45:00,45.5,12.61,40.2,39.9,40.0,40.4,39.8,82,84,79,0.697,34.8,35.3,34.5,2.828,3.4,227,7.2,4.4,-0.00010,-0.00011,53.8,50.2,55,0,0,0.0,7.85,0.00,0.00
15min,AgWx,bigpiney,439,05JUL2020:04:00:00,45.0,12.6,42.0,41.4,40.4,41.4,39.9,80,84,75,0.663,34.6,35.4,34.0,3.683,3.7,227,5.3,5.0,-0.00008,-0.00008,53.7,50.1,55,0,0,0.0,7.85,0.00,0.00
15min,AgWx,bigpiney,439,05JUL2020:04:15:00,44.8,12.58,43.7,43.1,42.5,43.2,41.4,71,75,66,0.619,33.8,34.9,32.2,2.916,3.3,279,30,4.7,-0.00006,-0.00006,53.6,50.2,55,0,0,0.0,7.85,0.00,0.00
15min,AgWx,bigpiney,439,05JUL2020:04:30:00,44.7,12.56,43.3,43.3,43.8,44.8,43.2,65,70,60,0.667,32.8,34.3,31.6,2.74,2.1,261,25,4.3,-0.00011,-0.00013,53.5,50.2,55,0,0,0.0,7.85,0.00,0.00
15min,AgWx,bigpiney,439,05JUL2020:04:45:00,44.7,12.56,41.2,42.2,42.7,43.5,41.2,69,75,65,0.641,33.3,34.9,32.1,0.614,1.7,238,32,3.0,-0.00015,-0.00019,53.4,50.2,55,0,0,0.0,7.85,0.00,0.00
15min,AgWx,bigpiney,439,05JUL2020:05:00:00,44.5,12.56,41.4,41.0,42.0,44.0,41.0,70,73,62,0.632,33.0,34.1,31.9,2.938,2.5,212,11,3.2,-0.00010,-0.00012,53.3,50.2,55,0,0,0.0,7.85,0.00,0.00
15min,AgWx,bigpiney,439,05JUL2020:05:15:00,44.3,12.55,39.4,39.2,40.4,41.2,39.2,74,80,71,0.648,32.7,33.5,32.3,2.872,2.8,206,5.0,3.9,-0.00009,-0.00011,53.2,50.2,55,0,0,0.0,7.85,0.00,0.00
15min,AgWx,bigpiney,439,05JUL2020:05:30:00,43.9,12.54,39.1,39.8,40.0,40.8,39.2,78,80,75,0.652,33.8,34.2,33.5,3.157,2.1,217,9.2,3.2,-0.00014,-0.00018,53.1,50.2,55,0,0,0.0,7.85,0.00,0.00
15min,AgWx,bigpiney,439,05JUL2020:05:45:00,43.4,12.53,41.8,42.7,40.4,43.4,39.1,75,80,65,0.634,33.2,33.7,32.5,1.929,1.7,205,9.2,3.6,-0.00015,-0.00020,53.0,50.2,55,2,0,0.0,7.85,0.00,0.00
15min,AgWx,bigpiney,439,05JUL2020:06:00:00,43.0,12.54,41.8,41.5,41.6,42.6,41.0,74,77,69,0.678,34.0,34.7,33.0,2.368,2.1,224,8.5,3.6,-0.00012,-0.00014,52.9,50.1,55,7,0,0.0,7.85,0.00,0.00
15min,AgWx,bigpiney,439,05JUL2020:06:15:00,42.9,12.55,39.5,39.5,40.5,41.6,39.4,78,82,75,0.673,34.3,34.9,33.9,2.762,2.1,198,11,2.9,-0.00025,-0.00020,52.8,50.2,55,29,0,0.0,7.85,0.00,0.00
15min,AgWx,bigpiney,439,05JUL2020:06:30:00,42.9,12.56,41.8,41.2,40.4,41.2,39.4,82,85,80,0.743,35.4,36.9,34.4,2.389,2.7,157,17,3.5,-0.00010,-0.00005,52.8,50.1,55,57,0,0.0,7.85,0.00,0.00
15min,AgWx,bigpiney,439,05JUL2020:06:45:00,43.4,12.56,43.9,43.5,42.4,43.6,41.2,83,85,79,0.763,37.4,37.8,36.9,1.6,1.8,135,12,2.5,0.00003,0.00007,52.7,50.2,55,90,0,0.0,7.85,0.00,0.00
15min,AgWx,bigpiney,439,05JUL2020:07:00:00,44.7,12.59,46.7,46.2,44.9,46.2,43.6,78,80,77,0.826,38.5,39.6,37.7,1.535,1.5,153,12,2.3,0.00022,0.00029,52.6,50.1,55,126,0,0.0,7.85,0.00,0.00
15min,AgWx,bigpiney,439,05JUL2020:07:15:00,46.4,12.6,48.8,48.5,47.3,48.5,46.2,76,79,72,0.832,40.2,40.7,39.7,2.324,2.5,153,13,4.6,0.00049,0.00062,52.5,50.1,55,166,0,0.0,7.85,0.00,0.00
15min,AgWx,bigpiney,439,05JUL2020:07:30:00,48.4,12.64,50.4,50.3,49.8,50.6,48.5,69,73,65,0.843,40.1,40.9,38.9,4.121,2.9,130,22,4.6,0.00081,0.00100,52.4,50.2,55,209,0,0.0,7.85,0.00,0.00
15min,AgWx,bigpiney,439,05JUL2020:07:45:00,50.5,12.66,50.8,50.9,50.5,51.1,50.2,67,70,64,0.829,39.9,40.9,38.7,3.902,3.4,98,15,4.9,0.00111,0.00135,52.3,50.2,55,256,0,0.0,7.85,0.00,0.00
15min,AgWx,bigpiney,439,05JUL2020:08:00:00,52.4,12.68,52.3,51.9,51.3,51.9,50.8,65,67,63,0.853,40.0,40.8,39.0,2.784,2.9,91,16,4.1,0.00138,0.00164,52.2,50.1,55,304,0,0.0,7.85,0.00,0.00